Location: Mentone
(34.5413°N, 85.5351°W)
Time: 02:57:28
(UTC-06:00)

UOSAT-12 - Visible Passes

Search period start: 18 February 2018 00:00
Search period end: 28 February 2018 00:00
Orbit: 593 x 661 km, 64.6° (Epoch: 18 February)

Date Brightness Start Highest point End Pass type
(mag) Time Alt. Az. Time Alt. Az. Time Alt. Az.
18 Feb 9.9 04:46:07 10° NNE 04:48:30 14° NE 04:50:53 10° ENE visible
19 Feb 9.2 05:04:37 10° N 05:08:39 27° NE 05:12:37 10° ESE visible
20 Feb 7.7 05:23:55 10° NNW 05:28:35 60° ENE 05:33:10 10° SE visible
21 Feb 9.9 04:04:58 10° N 04:07:51 16° NE 04:10:42 10° E visible
21 Feb 7.3 05:43:42 10° NW 05:48:19 58° WSW 05:52:51 10° SSE visible
21 Feb 9.2 19:50:43 10° SSW 19:52:01 19° SSW 19:52:01 19° SSW visible
22 Feb 8.9 04:23:44 10° N 04:27:58 32° NE 04:32:06 10° ESE visible
22 Feb 8.4 18:31:59 10° SSE 18:35:20 20° ESE 18:35:37 20° ESE visible
22 Feb 9.2 20:10:54 10° WSW 20:13:01 24° WSW 20:13:01 24° WSW visible
23 Feb 7.4 04:43:54 15° NNW 04:47:51 72° ENE 04:52:28 10° SE visible
23 Feb 7.3 18:50:28 10° S 18:54:51 48° ESE 18:56:35 32° ENE visible
23 Feb 9.9 20:32:03 10° W 20:33:59 16° WNW 20:33:59 16° WNW visible
24 Feb 9.6 03:26:55 18° NE 03:27:11 18° NE 03:30:25 10° E visible
24 Feb 7.4 05:04:17 18° NW 05:07:32 48° WSW 05:11:58 10° S visible
24 Feb 7.3 19:09:58 10° SW 19:14:32 71° WNW 19:17:28 22° NNE visible
25 Feb 8.5 03:47:32 37° ENE 03:47:32 37° ENE 03:51:33 10° ESE visible
25 Feb 8.5 05:24:54 15° WNW 05:27:03 20° WSW 05:30:26 10° SSW visible
25 Feb 8.9 19:30:20 10° WSW 19:34:26 31° NW 19:38:09 12° N visible
26 Feb 7.8 04:08:20 49° SE 04:08:20 49° SE 04:11:43 10° SSE visible
26 Feb 7.2 18:09:34 10° SSW 18:14:04 58° ESE 18:18:39 10° NE visible
26 Feb 9.9 19:51:46 10° W 19:54:31 15° NW 19:57:20 10° N visible
27 Feb 8.7 04:29:17 21° S 04:29:17 21° S 04:31:03 10° S visible
27 Feb 7.7 18:29:17 10° SW 18:33:47 59° WNW 18:38:25 10° NNE visible
